| time (UTC) | temp F | wind direction | speed MPH | gust MPH | rain 1hr in | rain 24hr in | rain mn in | humidity % | barometer mb |
| 20260503005731 | 59 | 325 | 8.0 | 15.0 | 0.00 | 0.00 | 0.00 | 37 | |
| 20260503005052 | 58 | 9 | 8.0 | 14.0 | 0.00 | 0.00 | 0.00 | 41 | |
| 20260503004411 | 58 | 359 | 7.0 | 22.0 | 0.00 | 0.00 | 0.00 | 45 | |
| 20260503003731 | 59 | 354 | 12.0 | 29.0 | 0.00 | 0.00 | 0.00 | 43 | |
| 20260503003051 | 61 | 324 | 16.0 | 24.0 | 0.00 | 0.00 | 0.00 | 36 | |
| 20260503002411 | 64 | 339 | 13.0 | 20.0 | 0.00 | 0.00 | 0.00 | 26 | |
| 20260503001731 | 65 | 341 | 3.0 | 4.0 | 0.00 | 0.00 | 0.00 | 24 | |
| 20260503001051 | 65 | 100 | 1.0 | 4.0 | 0.00 | 0.00 | 0.00 | 23 | |
| 20260502235731 | 66 | 88 | 2.0 | 5.0 | 0.00 | 0.00 | 0.00 | 23 | |
| 20260502234411 | 66 | 146 | 4.0 | 6.0 | 0.00 | 0.00 | 0.00 | 23 | |
| 20260502233731 | 66 | 140 | 4.0 | 5.0 | 0.00 | 0.00 | 0.00 | 23 | |
| 20260502233051 | 66 | 162 | 4.0 | 7.0 | 0.00 | 0.00 | 0.00 | 24 | |
| 20260502232411 | 66 | 227 | 3.0 | 8.0 | 0.00 | 0.00 | 0.00 | 25 | |
| 20260502231731 | 67 | 209 | 4.0 | 10.0 | 0.00 | 0.00 | 0.00 | 22 | |
| 20260502230411 | 68 | 246 | 5.0 | 9.0 | 0.00 | 0.00 | 0.00 | 21 | |
| 20260502225731 | 69 | 145 | 3.0 | 7.0 | 0.00 | 0.00 | 0.00 | 20 | |
| 20260502225051 | 70 | 226 | 4.0 | 8.0 | 0.00 | 0.00 | 0.00 | 21 | |
| 20260502224411 | 70 | 339 | 3.0 | 7.0 | 0.00 | 0.00 | 0.00 | 20 | |
| 20260502223731 | 69 | 179 | 3.0 | 7.0 | 0.00 | 0.00 | 0.00 | 21 | |
| 20260502223051 | 69 | 214 | 2.0 | 9.0 | 0.00 | 0.00 | 0.00 | 21 | |
| 20260502220411 | 68 | 235 | 4.0 | 8.0 | 0.00 | 0.00 | 0.00 | 22 | |
| 20260502215731 | 67 | 217 | 3.0 | 8.0 | 0.00 | 0.00 | 0.00 | 22 | |
| 20260502214411 | 67 | 180 | 2.0 | 7.0 | 0.00 | 0.00 | 0.00 | 23 | |
| 20260502213052 | 67 | 185 | 5.0 | 11.0 | 0.00 | 0.00 | 0.00 | 24 | |
| 20260502212411 | 67 | 226 | 3.0 | 9.0 | 0.00 | 0.00 | 0.00 | 25 | |
| 20260502211731 | 67 | 205 | 3.0 | 9.0 | 0.00 | 0.00 | 0.00 | 24 | |
| 20260502211051 | 67 | 217 | 1.0 | 7.0 | 0.00 | 0.00 | 0.00 | 24 | |
| 20260502205731 | 66 | 124 | 4.0 | 8.0 | 0.00 | 0.00 | 0.00 | 26 | |
| 20260502205051 | 66 | 136 | 3.0 | 7.0 | 0.00 | 0.00 | 0.00 | 26 | |
| 20260502204411 | 66 | 143 | 4.0 | 7.0 | 0.00 | 0.00 | 0.00 | 26 | |
| 20260502203731 | 66 | 212 | 4.0 | 8.0 | 0.00 | 0.00 | 0.00 | 25 | |
| 20260502203051 | 65 | 235 | 4.0 | 11.0 | 0.00 | 0.00 | 0.00 | 28 | |
| 20260502202411 | 66 | 227 | 5.0 | 7.0 | 0.00 | 0.00 | 0.00 | 26 | |
| 20260502201731 | 65 | 262 | 3.0 | 7.0 | 0.00 | 0.00 | 0.00 | 26 | |
| 20260502201051 | 65 | 123 | 3.0 | 8.0 | 0.00 | 0.00 | 0.00 | 26 | |
| 20260502195731 | 65 | 222 | 2.0 | 8.0 | 0.00 | 0.00 | 0.00 | 26 | |
| 20260502195051 | 65 | 190 | 4.0 | 11.0 | 0.00 | 0.00 | 0.00 | 28 | |
| 20260502194411 | 64 | 194 | 7.0 | 11.0 | 0.00 | 0.00 | 0.00 | 27 | |
| 20260502193731 | 66 | 184 | 4.0 | 10.0 | 0.00 | 0.00 | 0.00 | 27 | |
| 20260502192411 | 65 | 202 | 5.0 | 8.0 | 0.00 | 0.00 | 0.00 | 27 | |
| 20260502191733 | 65 | 232 | 3.0 | 9.0 | 0.00 | 0.00 | 0.00 | 28 | |
| 20260502191051 | 64 | 147 | 4.0 | 10.0 | 0.00 | 0.00 | 0.00 | 29 | |
| 20260502190411 | 64 | 215 | 5.0 | 10.0 | 0.00 | 0.00 | 0.00 | 29 | |
| 20260502185731 | 64 | 203 | 5.0 | 8.0 | 0.00 | 0.00 | 0.00 | 30 | |
| 20260502185052 | 64 | 262 | 4.0 | 8.0 | 0.00 | 0.00 | 0.00 | 29 | |
| 20260502184411 | 64 | 182 | 4.0 | 9.0 | 0.00 | 0.00 | 0.00 | 29 | |
| 20260502183731 | 63 | 227 | 5.0 | 10.0 | 0.00 | 0.00 | 0.00 | 30 | |
| 20260502183052 | 64 | 210 | 4.0 | 9.0 | 0.00 | 0.00 | 0.00 | 30 | |
| 20260502182411 | 63 | 235 | 6.0 | 9.0 | 0.00 | 0.00 | 0.00 | 30 | |
| 20260502181731 | 63 | 216 | 5.0 | 9.0 | 0.00 | 0.00 | 0.00 | 31 | |
| 20260502181051 | 64 | 151 | 4.0 | 8.0 | 0.00 | 0.00 | 0.00 | 29 | |
| 20260502180411 | 64 | 191 | 5.0 | 8.0 | 0.00 | 0.00 | 0.00 | 29 | |
| 20260502163731 | 60 | 351 | 4.0 | 7.0 | 0.00 | 0.00 | 0.00 | 33 | |
| 20260502163051 | 59 | 187 | 2.0 | 4.0 | 0.00 | 0.00 | 0.00 | 34 | |
| 20260502161731 | 58 | 328 | 2.0 | 6.0 | 0.00 | 0.00 | 0.00 | 36 | |
| 20260502161052 | 58 | 20 | 4.0 | 6.0 | 0.00 | 0.00 | 0.00 | 36 | |
| 20260502160411 | 57 | 325 | 2.0 | 5.0 | 0.00 | 0.00 | 0.00 | 37 | |
| 20260502151732 | 54 | 311 | 5.0 | 10.0 | 0.00 | 0.00 | 0.00 | 43 | |
| 20260502151051 | 54 | 319 | 6.0 | 10.0 | 0.00 | 0.00 | 0.00 | 44 | |
| 20260502150411 | 53 | 322 | 6.0 | 10.0 | 0.00 | 0.00 | 0.00 | 45 | |
| 20260502130411 | 44 | 293 | 3.0 | 5.0 | 0.00 | 0.00 | 0.00 | 64 | |
| 20260502123731 | 44 | 240 | 4.0 | 6.0 | 0.00 | 0.00 | 0.00 | 63 | |
| 20260502123051 | 45 | 265 | 2.0 | 7.0 | 0.00 | 0.00 | 0.00 | 60 | |
| 20260502121051 | 45 | 308 | 5.0 | 9.0 | 0.00 | 0.00 | 0.00 | 59 | |
| 20260502120411 | 45 | 283 | 3.0 | 9.0 | 0.00 | 0.00 | 0.00 | 60 | |
| 20260502115731 | 45 | 292 | 5.0 | 11.0 | 0.00 | 0.00 | 0.00 | 60 | |
| 20260502115051 | 44 | 278 | 4.0 | 8.0 | 0.00 | 0.00 | 0.00 | 62 | |
| 20260502114411 | 45 | 259 | 4.0 | 7.0 | 0.00 | 0.00 | 0.00 | 62 | |
| 20260502113731 | 45 | 261 | 4.0 | 9.0 | 0.00 | 0.00 | 0.00 | 61 | |
| 20260502113051 | 45 | 266 | 4.0 | 11.0 | 0.00 | 0.00 | 0.00 | 60 | |
| 20260502112411 | 45 | 278 | 4.0 | 11.0 | 0.00 | 0.00 | 0.00 | 60 | |
| 20260502111731 | 46 | 294 | 5.0 | 15.0 | 0.00 | 0.00 | 0.00 | 59 | |
| 20260502111051 | 47 | 304 | 7.0 | 15.0 | 0.00 | 0.00 | 0.00 | 57 | |
| 20260502110411 | 47 | 297 | 7.0 | 12.0 | 0.00 | 0.00 | 0.00 | 56 | |
| 20260502105731 | 47 | 297 | 6.0 | 9.0 | 0.00 | 0.00 | 0.00 | 55 | |
| 20260502104411 | 47 | 317 | 6.0 | 10.0 | 0.00 | 0.00 | 0.00 | 54 | |
| 20260502103731 | 46 | 313 | 6.0 | 10.0 | 0.00 | 0.00 | 0.00 | 53 | |
| 20260502103050 | 47 | 266 | 3.0 | 8.0 | 0.00 | 0.00 | 0.00 | 54 | |
| 20260502102410 | 46 | 280 | 4.0 | 9.0 | 0.00 | 0.00 | 0.00 | 54 | |
| 20260502101050 | 47 | 279 | 5.0 | 11.0 | 0.00 | 0.00 | 0.00 | 54 | |
| 20260502100410 | 47 | 267 | 6.0 | 11.0 | 0.00 | 0.00 | 0.00 | 54 | |
| 20260502091050 | 48 | 299 | 5.0 | 11.0 | 0.00 | 0.00 | 0.00 | 47 | |
| 20260502090412 | 48 | 282 | 4.0 | 8.0 | 0.00 | 0.00 | 0.00 | 46 | |
| 20260502071050 | 49 | 223 | 3.0 | 4.0 | 0.00 | 0.00 | 0.00 | 48 | |
| 20260502070410 | 49 | 217 | 2.0 | 2.0 | 0.00 | 0.00 | 0.00 | 46 | |
| 20260502065731 | 49 | 270 | 1.0 | 3.0 | 0.00 | 0.00 | 0.00 | 44 | |
| 20260502065050 | 49 | 253 | 2.0 | 5.0 | 0.00 | 0.00 | 0.00 | 44 | |
| 20260502064410 | 48 | 255 | 3.0 | 5.0 | 0.00 | 0.00 | 0.00 | 45 | |
| 20260502063730 | 48 | 270 | 1.0 | 4.0 | 0.00 | 0.00 | 0.00 | 44 | |
| 20260502063051 | 48 | 224 | 2.0 | 3.0 | 0.00 | 0.00 | 0.00 | 45 | |
| 20260502062410 | 48 | 308 | 1.0 | 8.0 | 0.00 | 0.00 | 0.00 | 44 | |
| 20260502061050 | 50 | 310 | 3.0 | 7.0 | 0.00 | 0.00 | 0.00 | 44 | |
| 20260502060410 | 51 | 230 | 6.0 | 9.0 | 0.00 | 0.00 | 0.00 | 43 | |
| 20260502055730 | 51 | 234 | 6.0 | 9.0 | 0.00 | 0.00 | 0.00 | 43 | |
| 20260502055051 | 51 | 232 | 6.0 | 9.0 | 0.00 | 0.00 | 0.00 | 42 | |
| 20260502054410 | 51 | 230 | 6.0 | 9.0 | 0.00 | 0.00 | 0.00 | 42 | |
| 20260502053730 | 51 | 234 | 7.0 | 9.0 | 0.00 | 0.00 | 0.00 | 41 | |
| 20260502053050 | 51 | 233 | 5.0 | 8.0 | 0.00 | 0.00 | 0.00 | 41 | |
| 20260502052410 | 51 | 235 | 5.0 | 7.0 | 0.00 | 0.00 | 0.00 | 40 | |
| 20260502051050 | 51 | 233 | 4.0 | 9.0 | 0.00 | 0.00 | 0.00 | 39 | |
| 20260502050410 | 51 | 240 | 5.0 | 9.0 | 0.00 | 0.00 | 0.00 | 38 | |
| 20260502045731 | 51 | 234 | 5.0 | 9.0 | 0.00 | 0.00 | 0.00 | 41 | |
| 20260502045050 | 51 | 253 | 4.0 | 6.0 | 0.00 | 0.00 | 0.00 | 43 | |
| 20260502044410 | 51 | 234 | 4.0 | 7.0 | 0.00 | 0.00 | 0.00 | 40 | |
| 20260502043729 | 52 | 233 | 5.0 | 7.0 | 0.00 | 0.00 | 0.00 | 38 | |
| 20260502043050 | 51 | 231 | 5.0 | 7.0 | 0.00 | 0.00 | 0.00 | 42 | |
| 20260502042409 | 52 | 243 | 3.0 | 8.0 | 0.00 | 0.00 | 0.00 | 41 | |
| 20260502041730 | 52 | 241 | 4.0 | 7.0 | 0.00 | 0.00 | 0.00 | 42 | |
| 20260502041049 | 53 | 234 | 4.0 | 7.0 | 0.00 | 0.00 | 0.00 | 40 | |
| 20260502040409 | 53 | 237 | 5.0 | 8.0 | 0.00 | 0.00 | 0.00 | 38 | |
| 20260502035729 | 53 | 236 | 4.0 | 7.0 | 0.00 | 0.00 | 0.00 | 39 | |
| 20260502035049 | 53 | 232 | 4.0 | 8.0 | 0.00 | 0.00 | 0.00 | 38 | |
| 20260502034409 | 53 | 234 | 4.0 | 7.0 | 0.00 | 0.00 | 0.00 | 37 | |
| 20260502033729 | 53 | 230 | 5.0 | 7.0 | 0.00 | 0.00 | 0.00 | 37 | |
| 20260502032409 | 55 | 230 | 4.0 | 7.0 | 0.00 | 0.00 | 0.00 | 32 | |
| 20260502031729 | 55 | 231 | 4.0 | 7.0 | 0.00 | 0.00 | 0.00 | 31 | |
| 20260502031049 | 54 | 221 | 3.0 | 5.0 | 0.00 | 0.00 | 0.00 | 33 | |
| 20260502030409 | 55 | 231 | 4.0 | 6.0 | 0.00 | 0.00 | 0.00 | 35 | |
| 20260502025729 | 56 | 229 | 4.0 | 7.0 | 0.00 | 0.00 | 0.00 | 31 | |
| 20260502025050 | 57 | 229 | 5.0 | 7.0 | 0.00 | 0.00 | 0.00 | 29 | |
| 20260502024409 | 58 | 235 | 4.0 | 9.0 | 0.00 | 0.00 | 0.00 | 27 | |
| 20260502023050 | 59 | 257 | 4.0 | 8.0 | 0.00 | 0.00 | 0.00 | 25 | |
| 20260502014410 | 66 | 270 | 4.0 | 11.0 | 0.00 | 0.00 | 0.00 | 18 | |
| 20260502013730 | 67 | 276 | 6.0 | 11.0 | 0.00 | 0.00 | 0.00 | 16 | |
| 20260502013050 | 67 | 259 | 4.0 | 8.0 | 0.00 | 0.00 | 0.00 | 14 | |
| 20260502012410 | 68 | 253 | 4.0 | 10.0 | 0.00 | 0.00 | 0.00 | 14 | |
| 20260502011050 | 69 | 255 | 4.0 | 12.0 | 0.00 | 0.00 | 0.00 | 13 | |
| 20260502010410 | 69 | 242 | 6.0 | 12.0 | 0.00 | 0.00 | 0.00 | 13 |